This is the latest recevied weather packets stored in our database for station/object W8DRH-13. If no packets are shown the sender has not sent any weather packets the latest 10 day(s).
| Time | Temp. | Humidity | Pressure | Rain* | Wind** | Luminosity | Snow |
|---|---|---|---|---|---|---|---|
| 1777761631 | 7.22° C | 62% | 1014.4 hPa | 0 mm | - | 62 W/m² | - |
| 1777761329 | 7.22° C | 64% | 1014.5 hPa | 0 mm | - | 65 W/m² | - |
| 1777761027 | 7.22° C | 67% | 1014.4 hPa | 0 mm | - | 70 W/m² | - |
| 1777760724 | 6.67° C | 66% | 1014.5 hPa | 0 mm | - | 65 W/m² | - |
| 1777760420 | 6.67° C | 68% | 1014.5 hPa | 0 mm | - | 51 W/m² | - |
| 1777760116 | 6.67° C | 70% | 1014.5 hPa | 0 mm | - | 67 W/m² | - |
| 1777759814 | 6.67° C | 71% | 1014.5 hPa | 0 mm | - | 95 W/m² | - |
| 1777759509 | 6.67° C | 71% | 1014.6 hPa | 0 mm | - | 109 W/m² | - |
| 1777758904 | 6.67° C | 72% | 1014.4 hPa | 0 mm | - | 94 W/m² | - |
| 1777758600 | 6.67° C | 73% | 1014.4 hPa | 0 mm | - | 73 W/m² | - |
| 1777757995 | 6.67° C | 73% | 1014.5 hPa | 0 mm | - | 74 W/m² | - |
| 1777757691 | 6.67° C | 73% | 1014.4 hPa | 0 mm | - | 54 W/m² | - |
| 1777757389 | 6.67° C | 72% | 1014.5 hPa | 0 mm | - | 60 W/m² | - |
| 1777757088 | 6.67° C | 72% | 1014.4 hPa | 0 mm | - | 74 W/m² | - |
| 1777756785 | 6.67° C | 72% | 1014.5 hPa | 0 mm | - | 72 W/m² | - |
| 1777756480 | 6.67° C | 73% | 1014.4 hPa | 0 mm | - | 77 W/m² | - |
| 1777756178 | 6.11° C | 73% | 1014.4 hPa | 0 mm | - | 88 W/m² | - |
| 1777755874 | 6.11° C | 73% | 1014.1 hPa | 0 mm | - | 107 W/m² | - |
| 1777755572 | 6.11° C | 73% | 1014.3 hPa | 0 mm | - | 93 W/m² | - |
| 1777755268 | 6.11° C | 73% | 1014.3 hPa | 0 mm | - | 89 W/m² | - |
| 1777753754 | 6.11° C | 76% | 1014.3 hPa | 0 mm | - | 192 W/m² | - |
| 1777753450 | 6.11° C | 76% | 1014.4 hPa | 0 mm | - | 289 W/m² | - |
| 1777753148 | 6.11° C | 76% | 1014.5 hPa | 0 mm | - | 195 W/m² | - |
| 1777752844 | 5.56° C | 76% | 1014.6 hPa | 0 mm | - | 140 W/m² | - |
| 1777752541 | 6.11° C | 76% | 1014.8 hPa | 0 mm | - | 110 W/m² | - |
* Rain latest hour (hover to see other rain measurements)
** Current wind speed in m/s (hover to see current wind gust speed)